#timestamp,LO_Frequency,Hit 
1501336815.1,286046988.6,N
1501336835.9,286046987.4,N
1501336855.7,286046989.8,N
1501336875.5,286046990.0,N
1501336895.4,286046989.2,N
1501336915.2,286046988.6,N
1501336935.0,286046989.9,N
1501336935.9,286046989.9,N
1501336955.7,286046987.6,N
1501336975.6,286046987.2,N
1501336995.4,286046989.8,N
1501337015.2,286046987.3,N
1501337035.1,286046987.5,N
1501337036.0,286046987.5,N
1501337055.8,286046987.1,N
1501337075.6,286046988.2,N
1501337095.5,286046988.1,N
1501337115.3,286046985.8,N
1501337135.1,286046985.9,N
1501337155.9,286046986.4,N
1501337175.7,286046984.3,N
1501337195.5,286046986.8,N
1501337215.3,286046983.7,N
1501337235.2,286046983.8,N
1501337255.0,286046984.2,N
1501337255.9,286046984.2,N
1501337275.7,286046984.4,N
1501337295.6,286046984.8,N
1501337315.4,286046982.3,N
1501337335.2,286046982.6,N
1501337355.1,286046983.0,N
1501337356.0,286046983.0,N
1501337375.8,286046980.6,N
1501337395.6,286046981.8,N
1501337415.5,286046981.4,N
1501337435.3,286046979.3,N
1501337455.1,286046982.0,N
1501337475.9,286046980.1,N
1501337495.7,286046980.1,N
1501337515.5,286046978.2,Y
1501337535.4,286046995.4,N
1501337555.2,286046997.9,N
1501337575.0,286046995.4,N
1501337575.9,286046995.4,N
1501337595.8,286046997.9,N
1501337615.6,286046998.0,N
1501337635.4,286046995.0,N
1501337655.2,286046998.0,N
1501337675.1,286046997.4,N
1501337676.0,286046997.4,N
1501337695.8,286046995.8,N
1501337715.6,286046995.1,N
1501337735.5,286046995.3,N
1501337755.3,286046997.7,N
1501337775.1,286046997.8,N
1501337795.9,286046997.5,N
1501337815.7,286046995.3,N
1501337835.5,286046995.2,N
1501337855.4,286046995.5,N
1501337875.2,286046995.7,N
1501337895.0,286046995.7,N
1501337895.9,286046995.7,N
1501337915.8,286046992.2,N
1501337935.6,286046993.1,N
1501337955.4,286046990.2,N
1501337975.2,286046992.3,N
1501337995.1,286046991.9,N
1501337996.0,286046991.9,N
1501338015.8,286046994.5,N
1501338035.6,286046996.1,N
1501338055.5,286046996.3,N
1501338075.3,286046992.1,N
1501338095.1,286046991.7,N
1501338115.9,286046994.8,N
1501338135.7,286046991.8,N
1501338155.5,286046992.1,N
1501338175.4,286046991.7,N
1501338195.2,286046992.2,N
1501338215.0,286046994.8,N
1501338215.9,286046994.8,N
1501338235.7,286046994.6,N
1501338255.6,286046994.1,N
1501338275.4,286046993.9,N
1501338295.2,286046993.9,N
1501338315.1,286046994.5,N
1501338316.0,286046994.5,N
1501338335.8,286046992.2,N
1501338355.6,286046992.0,N
1501338375.5,286046991.9,N
1501338395.3,286046991.9,N
1501338415.1,286046992.9,N
1501338435.9,286046990.5,N
1501338455.7,286046991.5,N
1501338475.5,286046991.5,N
1501338495.3,286046991.1,N
1501338515.2,286046991.5,N
1501338535.0,286046991.5,N
1501338535.9,286046991.5,N
1501338555.7,286046989.3,N
1501338575.6,286046990.0,N
1501338595.4,286046989.5,N
1501338615.2,286046986.6,N
1501338635.1,286046985.9,N
1501338636.0,286046985.9,N
1501338655.8,286046988.2,N
1501338675.6,286046990.0,N
1501338695.5,286046987.2,N
1501338715.3,286046988.2,N
1501338735.1,286046987.2,N
1501338755.9,286046985.3,N
1501338775.7,286046985.6,N
1501338795.5,286046986.2,N
1501338815.3,286046985.6,N
1501338835.2,286046987.6,N
1501338855.0,286046987.6,N
1501338855.9,286046987.6,N
1501338875.7,286046988.2,N
1501338895.6,286046985.9,N
1501338915.4,286046986.1,N
1501338935.2,286046983.7,N
1501338955.1,286046984.5,N
1501338956.0,286046984.5,N
1501338975.8,286046985.2,N
1501338995.6,286046984.6,N
1501339015.5,286046983.7,N
1501339035.3,286046986.5,N
1501339055.1,286046982.1,N
1501339075.8,286046983.9,N
1501339095.7,286046982.8,N
1501339115.5,286046983.0,N
1501339135.3,286046982.4,N
1501339155.2,286046983.0,N
1501339175.9,286046982.5,N
1501339195.7,286046984.6,N
1501339215.6,286046984.9,N
1501339235.4,286046981.1,N
1501339255.2,286046980.2,N
1501339275.1,286046980.4,N
1501339276.0,286046980.4,N
1501339295.8,286046977.4,Y
1501339315.6,286046995.7,N
1501339335.5,286046995.7,N
1501339355.3,286046997.9,N
1501339375.1,286046997.4,N
1501339395.8,286046995.0,N
1501339415.7,286046996.2,N
1501339435.5,286046994.2,N
1501339455.3,286046993.5,N
1501339475.2,286046993.8,N
1501339495.9,286046993.8,N
1501339515.7,286046993.6,N
1501339535.6,286046996.4,N
1501339555.4,286046996.0,N
1501339575.2,286046995.5,N
1501339595.1,286046996.4,N
1501339596.0,286046996.4,N
1501339615.8,286046993.5,N
1501339635.6,286046994.4,N
1501339655.5,286046991.8,N
1501339675.3,286046992.6,N
1501339695.1,286046993.0,N
1501339715.8,286046990.8,N
1501339735.7,286046993.1,N
1501339755.5,286046992.9,N
1501339775.3,286046994.4,N
1501339795.2,286046991.9,N
1501339815.9,286046992.0,N
1501339835.7,286046992.8,N
1501339855.6,286046990.4,N
1501339875.4,286046990.2,N
1501339895.2,286046990.3,N
1501339915.0,286046990.8,N
1501339916.0,286046990.8,N
1501339935.8,286046987.1,N
1501339955.6,286046988.1,N
1501339975.4,286046988.3,N
1501339995.3,286046987.8,N
1501340015.1,286046986.9,N
1501340035.8,286046987.0,N
1501340055.7,286046988.1,N
1501340075.5,286046988.3,N
1501340095.3,286046988.3,N
1501340115.2,286046986.4,N
1501340135.9,286046986.8,N
1501340155.7,286046985.8,N
1501340175.6,286046985.9,N
1501340195.4,286046986.0,N
1501340215.2,286046988.0,N
1501340235.0,286046985.3,N
1501340235.9,286046985.3,N
1501340255.8,286046986.3,N
1501340275.6,286046986.5,N
1501340295.4,286046985.4,N
1501340315.3,286046985.9,N
1501340335.1,286046987.7,N
1501340355.8,286046987.0,N
1501340375.7,286046987.4,N
1501340395.5,286046988.9,N
